Location: Palmerston North
(40.3500°S, 175.6170°E)
Time: 01:58:07
(UTC+13:00)

Cosmos 1709 Rocket - Pass Details

Date: 24 January 2019
Orbit: 949 x 1001 km, 82.9° (Epoch: 13 October)

Event Time Altitude Azimuth Distance (km) Brightness Sun altitude
Exits shadow 23:21:41 48° 18° (NNE) 1,277 4.2 -23.4°
Maximum altitude 23:23:30 72° 86° (E) 1,037 3.9 -23.6°
Drops below altitude 10° 23:29:46 10° 169° (SSE) 2,744 6.9 -24.2°
Sets 23:32:17 0° 170° (S) 3,690 7.8 -24.5°
